This is the latest recevied weather packets stored in our database for station/object YO6IKB-10. If no packets are shown the sender has not sent any weather packets the latest 10 day(s).
| Time | Temp. | Humidity | Pressure | Rain* | Wind** | Luminosity | Snow |
|---|---|---|---|---|---|---|---|
| 1777267572 | 14.44° C | 44% | 1019.7 hPa | 0 mm | - | - | - |
| 1777267272 | 13.89° C | 45% | 1019.6 hPa | 0 mm | - | - | - |
| 1777266972 | 12.78° C | 45% | 1019.6 hPa | 0 mm | - | - | - |
| 1777266672 | 12.78° C | 45% | 1019.5 hPa | 0 mm | - | - | - |
| 1777266371 | 12.22° C | 46% | 1019.6 hPa | 0 mm | - | - | - |
| 1777266071 | 12.22° C | 46% | 1019.5 hPa | 0 mm | - | - | - |
| 1777265771 | 12.22° C | 47% | 1019.5 hPa | 0 mm | - | - | - |
| 1777265470 | 11.67° C | 47% | 1019.4 hPa | 0 mm | - | - | - |
| 1777265170 | 11.11° C | 48% | 1019.4 hPa | 0 mm | - | - | - |
| 1777264870 | 10.56° C | 49% | 1019.3 hPa | 0 mm | - | - | - |
| 1777264569 | 10° C | 51% | 1019.1 hPa | 0 mm | - | - | - |
| 1777264269 | 9.44° C | 51% | 1019.2 hPa | 0 mm | - | - | - |
| 1777263969 | 8.33° C | 52% | 1019.2 hPa | 0 mm | - | - | - |
| 1777263668 | 7.78° C | 54% | 1019 hPa | 0 mm | - | - | - |
| 1777263368 | 7.78° C | 54% | 1019 hPa | 0 mm | - | - | - |
| 1777263068 | 7.22° C | 55% | 1019 hPa | 0 mm | - | - | - |
| 1777262768 | 6.67° C | 56% | 1019 hPa | 0 mm | - | - | - |
| 1777262467 | 5.56° C | 57% | 1019 hPa | 0 mm | - | - | - |
| 1777262167 | 5° C | 59% | 1018.9 hPa | 0 mm | - | - | - |
| 1777261867 | 3.89° C | 59% | 1018.9 hPa | 0 mm | - | - | - |
| 1777261566 | 3.89° C | 59% | 1018.8 hPa | 0 mm | - | - | - |
| 1777261266 | 3.33° C | 59% | 1018.8 hPa | 0 mm | - | - | - |
| 1777260966 | 3.33° C | 59% | 1018.9 hPa | 0 mm | - | - | - |
| 1777260665 | 2.78° C | 59% | 1018.8 hPa | 0 mm | - | - | - |
| 1777260365 | 2.78° C | 59% | 1018.7 hPa | 0 mm | - | - | - |
* Rain latest hour (hover to see other rain measurements)
** Current wind speed in m/s (hover to see current wind gust speed)